TimeCDT,TemperatureF,Dew PointF,Humidity,Sea Level PressureIn,VisibilityMPH,Wind Direction,Wind SpeedMPH,Gust SpeedMPH,PrecipitationIn,Events,Conditions,WindDirDegrees,DateUTC
12:53 AM,42.1,28.9,60,30.06,10.0,SSW,10.4,-,N/A,,Scattered Clouds,200,2013-04-25 05:53:00
1:53 AM,44.1,28.9,55,30.03,10.0,SSW,13.8,-,N/A,,Scattered Clouds,210,2013-04-25 06:53:00
2:53 AM,44.1,30.0,58,30.02,10.0,WSW,17.3,26.5,N/A,,Overcast,240,2013-04-25 07:53:00
3:53 AM,42.1,33.1,70,30.02,10.0,SW,15.0,-,0.00,,Overcast,230,2013-04-25 08:53:00
4:23 AM,41.0,33.8,76,30.01,10.0,SW,12.7,-,0.00,,Overcast,230,2013-04-25 09:23:00
4:53 AM,41.0,34.0,76,30.03,10.0,SW,10.4,-,0.00,,Overcast,220,2013-04-25 09:53:00
5:38 AM,39.2,35.6,87,30.03,10.0,WSW,13.8,-,0.00,,Overcast,240,2013-04-25 10:38:00
5:53 AM,39.9,35.1,83,30.04,10.0,WSW,13.8,-,0.00,,Overcast,240,2013-04-25 10:53:00
6:53 AM,41.0,35.1,79,30.06,10.0,West,11.5,-,N/A,,Mostly Cloudy,260,2013-04-25 11:53:00
7:53 AM,41.0,33.1,73,30.09,10.0,West,16.1,-,N/A,,Scattered Clouds,270,2013-04-25 12:53:00
8:53 AM,43.0,33.1,68,30.13,10.0,WNW,19.6,24.2,N/A,,Mostly Cloudy,290,2013-04-25 13:53:00
9:53 AM,46.0,30.9,56,30.15,10.0,WNW,13.8,23.0,N/A,,Mostly Cloudy,300,2013-04-25 14:53:00
10:53 AM,45.0,30.9,58,30.18,10.0,West,16.1,23.0,N/A,,Mostly Cloudy,280,2013-04-25 15:53:00
11:53 AM,48.0,28.0,46,30.20,10.0,WNW,12.7,23.0,N/A,,Mostly Cloudy,290,2013-04-25 16:53:00
12:53 PM,48.9,28.0,44,30.22,10.0,WNW,17.3,25.3,N/A,,Mostly Cloudy,290,2013-04-25 17:53:00
1:53 PM,50.0,30.0,46,30.23,10.0,West,17.3,21.9,N/A,,Scattered Clouds,270,2013-04-25 18:53:00
2:53 PM,52.0,30.9,45,30.25,10.0,WSW,17.3,25.3,N/A,,Scattered Clouds,250,2013-04-25 19:53:00
3:53 PM,52.0,30.9,45,30.24,10.0,West,12.7,23.0,N/A,,Mostly Cloudy,260,2013-04-25 20:53:00
4:53 PM,51.1,27.0,39,30.25,10.0,WNW,15.0,20.7,N/A,,Clear,290,2013-04-25 21:53:00
5:53 PM,50.0,28.9,44,30.26,10.0,WSW,13.8,21.9,N/A,,Clear,250,2013-04-25 22:53:00
6:53 PM,48.9,28.0,44,30.27,10.0,West,11.5,-,N/A,,Scattered Clouds,260,2013-04-25 23:53:00
7:53 PM,43.0,27.0,53,30.28,10.0,West,5.8,-,N/A,,Clear,260,2013-04-26 00:53:00
8:53 PM,44.1,28.0,53,30.29,10.0,SSW,3.5,-,N/A,,Clear,210,2013-04-26 01:53:00
9:53 PM,42.1,28.0,58,30.31,10.0,South,3.5,-,N/A,,Clear,190,2013-04-26 02:53:00
10:53 PM,41.0,28.0,60,30.32,10.0,South,4.6,-,N/A,,Clear,190,2013-04-26 03:53:00
11:53 PM,39.0,28.0,65,30.33,10.0,South,4.6,-,N/A,,Clear,190,2013-04-26 04:53:00